Tracking 29967 objects as of 5-Dec-2024
HD Live streaming from Space Station
objects crossing your sky now

STARLINK-30532

Track STARLINK-30532 now!
10-day predictions
STARLINK-30532 is classified as:


NORAD ID: 58070
Int'l Code: 2023-158V
Perigee: 565.5 km
Apogee: 566.9 km
Inclination: 43.0 °
Period: 95.8 minutes
Semi major axis: 6937 km
RCS: Unknown
Launch date: October 13, 2023
Source: United States (US)
Launch site: AIR FORCE EASTERN TEST RANGE (AFETR)
Your satellite tracking list
Your tracking list is empty




NASA's NSSDC Master Catalog

Two Line Element Set (TLE):
1 58070U 23158V   24340.38853212  .00000659  00000-0  63876-4 0  9998
2 58070  43.0033   5.7795 0001013 271.7681  88.3045 15.02535757 64441
Source of the keplerian elements: AFSPC